Regional Weather Roundup
Issued by NWS

Home | Current Version | Previous Version | Graphics & Text | Print | Product List | Glossary On
Versions: 1 2 3 4 5 6 7 8 9 10 11 12 13 14 15 16 17 18 19 20 21 22 23 24 25 26 27 28 29 30 31 32 33 34 35 36 37 38 39 40 41 42 43 44 45 46 47 48 49 50
000
ASUS43 KIND 011859
RWRIN

WEATHER ROUNDUP FOR INDIANA
NATIONAL WEATHER SERVICE INDIANAPOLIS IN
300 PM EDT MON SEP 01 2014

NOTE: "FAIR" INDICATES FEW OR NO CLOUDS BELOW 12,000 FEET WITH NO
SIGNIFICANT WEATHER AND/OR OBSTRUCTIONS TO VISIBILITY.

* - STATION DOES NOT REPORT WEATHER SUCH AS PRECIPITATION OR FOG.

+ - STATION NOT QUALITY CONTROLLED BY THE NATIONAL WEATHER SERVICE.
    USE DATA WITH CAUTION...ESPECIALLY DEWPOINT AND RELATIVE
    HUMIDITY OBSERVATIONS.

INZ001>003-010>013-019-020-012000-
NORTHWEST INDIANA

CITY           SKY/WX    TMP DP  RH WIND       PRES   REMARKS
GARY /AIRPORT/ PTSUNNY   82  68  61 SW14G28   29.79S
KNOX *+        CLOUDY    78  71  79 SW12G20   29.80S
MONTICELLO +   CLOUDY    81  73  77 SW15G21   29.82S
VALPARAISO     PTSUNNY   83  68  60 SW22G35   29.81R

$$

LMZ046-743>745-012000-
SOUTHERN LAKE MICHIGAN

STATION/POSITION TIME  TEMP WIND        PRES
                       AIR  DIR/SP/G
                 (UTC) (F)  (DEG/KT/KT) (MB)
MICHIGAN CITY    1800   76  190/ 14/ 20   N/A

$$

INZ004-005-014>016-021>024-012000-
NORTH CENTRAL INDIANA

CITY           SKY/WX    TMP DP  RH WIND       PRES   REMARKS
ELKHART        PTSUNNY   79  73  83 SW13      29.80S
GOSHEN         LGT RAIN  80  71  74 SW20G25   29.80S
PERU/GRISSOM   CLOUDY    81  75  83 SW18G25   29.84S
SOUTH BEND     LGT RAIN  80  71  74 SW17G29   29.80S

$$

INZ006>009-017-018-025>027-012000-
NORTHEAST INDIANA

CITY           SKY/WX    TMP DP  RH WIND       PRES   REMARKS
ANGOLA *+      MOSUNNY   82  77  83 SW17      29.81F
FORT WAYNE     CLOUDY    81  70  69 SW18      29.85R

$$

INZ028-029-035-036-043>045-051>053-012000-
WEST CENTRAL INDIANA

CITY           SKY/WX    TMP DP  RH WIND       PRES   REMARKS
GREENCASTLE +  CLOUDY    79  72  78 S6G16     29.89S
LAFAYETTE      PTSUNNY   79  71  76 SW12      29.84R
TERRE HAUTE    CLOUDY    81  71  71 SW15G22   29.89R

$$

INZ030>032-037>040-046>048-054>057-064-065-012000-
CENTRAL INDIANA

CITY           SKY/WX    TMP DP  RH WIND       PRES   REMARKS
FRANKFORT +    CLOUDY    81  73  75 SW13G24   29.88R
INDIANAPOLIS   CLOUDY    81  71  71 SW21G29   29.88R
-EAGLE CREEK   CLOUDY    81  70  69 S12G22    29.88S
KOKOMO *+      CLOUDY    81  72  74 SW21G28   29.85S
MT COMFORT *+  CLOUDY    81  75  83 SW14G22   29.90S
SHELBYVILLE    CLOUDY    82  70  66 SW17      29.91R

$$

INZ033-034-041-042-049-050-058-059-012000-
EAST CENTRAL INDIANA

CITY           SKY/WX    TMP DP  RH WIND       PRES   REMARKS
MUNCIE         PTSUNNY   82  70  66 SW13G24   29.88S

$$

INZ060-061-067>069-081>083-085>088-012000-
SOUTHWEST INDIANA

CITY           SKY/WX    TMP DP  RH WIND       PRES   REMARKS
EVANSVILLE     CLOUDY    84  71  65 SW21G28   29.92R

$$

INZ062-063-066-070>080-084-089>092-012000-
SOUTH CENTRAL AND SOUTHEAST INDIANA

CITY           SKY/WX    TMP DP  RH WIND       PRES   REMARKS
BLOOMINGTON    CLOUDY    81  72  74 SW14      29.91R

$$




USA.gov is the U.S. government's official web portal to all federal, state and local government web resources and services.